Flag for Germany Weather past 2 weeks in Osterholz-Scharmbeck, Lower Saxony, Germany

Now
54 °F

Overcast.


Feels Like: 54 °F
Forecast: 38 / 64 °F
Wind: 1 mph from West

Location: Bremen

Current Time: May 23, 2015 at 3:41:23 AM

Latest Report: May 23, 2015 at 3:00 AM


Visibility: 22 mi

Pressure: 30.16 "Hg

Humidity: 87%

Dew point: 51 °F

Location of Osterholz-ScharmbeckLocation

Historic Weather in Osterholz-Scharmbeck — Graph

°F

Osterholz-Scharmbeck temperature yesterday

Maximum temperature yesterday: 66 °F (at 4:00 PM)
Minimum temperature yesterday: 42 °F (at 6:00 AM)
Average temperature yesterday: 57 °F

Past Weeks' High & Low Weather Summary

 TemperatureHumidityPressure
High75 °F (May 11, 6:00 PM)99% (May 21, 12:00 AM)30.33 "Hg (May 21, 12:00 AM)
Low35 °F (May 16, 5:00 AM)39% (May 11, 6:00 PM)29.59 "Hg (May 18, 9:00 PM)
Average53 °F71%30.04 "Hg
* Reported May 8 2:00 AM — May 23 2:00 AM, Osterholz-Scharmbeck, Weather by CustomWeather, © 2015

Note: Actual official high and low records may vary slightly from our data, if they occured in-between our weather recording intervals... More about our weather records

Advertising

Osterholz-Scharmbeck weather history for previous 24 hours

 ConditionsComfort  
Time TempWeatherWind HumidityBarometerVisibility
2:00 AM
Sat, May 23
55 °FOvercast.No wind88%30.17 "Hg19 mi
1:00 AM55 °FOvercast.1 mph86%30.18 "Hg22 mi
12:00 AM59 °FOvercast.2 mph68%30.19 "Hg19 mi
11:00 PM
Fri, May 22
59 °FOvercast.3 mph67%30.19 "Hg17 mi
10:00 PM60 °FOvercast.2 mph71%30.19 "Hg14 mi
9:00 PM61 °FOvercast.2 mph65%30.18 "Hg17 mi
8:00 PM63 °FOvercast.3 mph60%30.18 "Hg17 mi
7:00 PM62 °FOvercast.2 mph61%30.18 "Hg16 mi
6:00 PM65 °FOvercast.3 mph55%30.19 "Hg11 mi
5:00 PM66 °FOvercast.5 mph52%30.20 "Hg16 mi
4:00 PM66 °FPartly sunny.5 mph52%30.22 "Hg16 mi
3:00 PM66 °FScattered clouds.7 mph49%30.23 "Hg16 mi
2:00 PM66 °FOvercast.6 mph50%30.24 "Hg19 mi
1:00 PM65 °FOvercast.5 mph52%30.26 "Hg19 mi
12:00 PM64 °FOvercast.5 mph52%30.27 "Hg19 mi
10:00 AM58 °FOvercast.5 mph63%30.30 "Hg16 mi
9:00 AM56 °FOvercast.3 mph69%30.30 "Hg14 mi
8:00 AM50 °FOvercast.2 mph81%30.30 "Hg12 mi
7:00 AM44 °FOvercast.1 mph93%30.30 "Hg9 mi
6:00 AM42 °FFog.1 mph98%30.30 "Hg5 mi
4:00 AM43 °FOvercast.1 mph96%30.31 "Hg12 mi
3:00 AM45 °FPassing clouds.1 mph93%30.31 "Hg16 mi
Weather by CustomWeather, © 2015

See weather overviewHow to use our weather pages